Time,TemperatureF,DewpointF,PressureIn,WindDirection,WindDirectionDegrees,WindSpeedMPH,WindSpeedGustMPH,Humidity,HourlyPrecipIn,Conditions,Clouds,dailyrainin,SoftwareType,DateUTC
2013-08-03 00:59:00,63.1,62.6,29.96,SE,139,0.0,0.0,98,0.00,CLR,,0.00,WeatherDisplay:10.37,2013-08-03 04:59:00,
2013-08-03 01:59:00,62.3,61.7,29.96,SE,139,0.0,1.0,98,0.00,CLR,,0.00,WeatherDisplay:10.37,2013-08-03 05:59:00,
2013-08-03 02:59:00,61.5,60.9,29.97,SE,139,0.0,1.0,98,0.00,CLR,,0.00,WeatherDisplay:10.37,2013-08-03 06:59:00,
2013-08-03 03:59:00,61.1,60.8,29.96,SE,139,0.0,0.0,99,0.00,CLR,,0.00,WeatherDisplay:10.37,2013-08-03 07:59:00,
2013-08-03 04:59:00,60.7,60.4,29.96,SE,139,0.0,1.0,99,0.00,CLR,,0.00,WeatherDisplay:10.37,2013-08-03 08:59:00,
2013-08-03 05:59:00,61.7,61.4,29.96,SE,139,0.0,1.0,99,0.00,CLR,,0.00,WeatherDisplay:10.37,2013-08-03 09:59:00,
2013-08-03 06:59:00,61.8,61.5,29.97,SSE,157,0.0,0.0,99,0.00,CLR,,0.00,WeatherDisplay:10.37,2013-08-03 10:59:00,
2013-08-03 07:59:00,63.3,63.0,29.98,SSE,157,0.0,0.0,99,0.00,CLR,,0.00,WeatherDisplay:10.37,2013-08-03 11:59:00,
2013-08-03 08:59:00,67.0,66.7,29.98,South,181,0.0,1.0,99,0.00,CLR,,0.00,WeatherDisplay:10.37,2013-08-03 12:59:00,
2013-08-03 09:59:00,72.9,69.2,29.99,West,267,0.0,2.0,88,0.00,CLR,,0.00,WeatherDisplay:10.37,2013-08-03 13:59:00,
2013-08-03 10:59:00,77.6,70.5,29.97,SSE,161,0.0,4.0,79,0.00,CLR,,0.00,WeatherDisplay:10.37,2013-08-03 14:59:00,
2013-08-03 11:59:00,77.9,69.0,29.97,SSE,154,0.0,7.0,74,0.00,BKN,,0.00,WeatherDisplay:10.37,2013-08-03 15:59:00,
2013-08-03 12:59:00,79.8,70.8,29.97,SE,135,2.0,6.0,74,0.00,SCT,,0.00,WeatherDisplay:10.37,2013-08-03 16:59:00,
2013-08-03 13:59:00,78.5,70.3,29.97,SE,135,1.0,9.0,76,0.00,SCT,,0.00,WeatherDisplay:10.37,2013-08-03 17:59:00,
2013-08-03 14:59:00,79.1,70.1,29.96,SE,135,1.0,8.0,74,0.00,BKN,,0.00,WeatherDisplay:10.37,2013-08-03 18:59:00,
2013-08-03 15:59:00,78.4,70.2,29.96,SSE,147,2.0,6.0,76,0.00,OVC,,0.00,WeatherDisplay:10.37,2013-08-03 19:59:00,
2013-08-03 16:59:00,78.1,70.7,29.94,SE,137,1.0,7.0,78,0.00,OVC,,0.00,WeatherDisplay:10.37,2013-08-03 20:59:00,
2013-08-03 17:59:00,76.3,71.8,29.94,SE,143,0.0,7.0,86,0.00,OVC,,0.00,WeatherDisplay:10.37,2013-08-03 21:59:00,
2013-08-03 18:59:00,75.1,72.3,29.93,SE,143,0.0,1.0,91,0.00,OVC,,0.00,WeatherDisplay:10.37,2013-08-03 22:59:00,
2013-08-03 19:59:00,73.2,71.1,29.94,SE,143,0.0,1.0,93,0.00,CLR,,0.00,WeatherDisplay:10.37,2013-08-03 23:59:00,
2013-08-03 20:59:00,69.9,68.7,29.95,SE,143,0.0,0.0,96,0.00,CLR,,0.00,WeatherDisplay:10.37,2013-08-04 00:59:00,
2013-08-03 21:59:00,68.3,67.4,29.96,SE,143,0.0,1.0,97,0.00,BKN,,0.00,WeatherDisplay:10.37,2013-08-04 01:59:00,
2013-08-03 22:59:00,67.0,66.4,29.97,SE,143,0.0,1.0,98,0.00,SCT,,0.00,WeatherDisplay:10.37,2013-08-04 02:59:00,
2013-08-03 23:59:00,65.9,65.4,29.98,SE,143,0.0,1.0,98,0.00,CLR,,0.00,WeatherDisplay:10.37,2013-08-04 03:59:00,